[[{"header":{"parameterUnit":"m.s-1","parameterCategory":1,"la1":30.2991,"la2":30.254,"lo1":-89.0895,"lo2":-89.0444,"dy":0.0017,"dx":0.0017,"nx":28,"ny":28,"refTime":"2025-04-14T03:00:00:Z","depth":0,"parameterNumber":2,"parameterNumberName":"U-component_of_WINDS"},"data":[0,0,0,0,0,0,0,0,0,0,0,0,0,0,0,0,0,0,0,0,0,0,0,0,0,0,0,0,0,0,0,0,0,0,0,0,0,0,0,0,0,0,0,0,0,0,0,0,0,0,0,0,0,0,0,0,0,0,3.1968,3.1968,0,3.2006,3.2006,3.2007,3.1978,3.1977,3.1976,3.1975,3.2014,3.2016,3.2019,0,0,0,0,0,0,0,0,0,0,0,0,0,3.187,3.1872,3.1968,3.1968,3.1969,3.2006,3.2006,3.2007,3.1979,3.1977,3.1976,3.1974,3.2014,3.2016,3.2019,0,0,0,0,0,0,0,0,0,0,0,0,0,3.1911,3.1873,3.1968,3.1959,3.1959,3.2006,3.2006,3.2007,3.1979,3.1977,3.1975,3.1973,3.2013,3.2016,3.2019,3.2077,0,0,3.2029,3.2031,0,0,0,0,0,0,0,0,3.1908,3.1914,3.196,3.196,3.1959,3.1985,3.1986,3.203,3.1979,3.1971,3.1975,3.1972,3.2006,3.201,3.2021,3.2079,3.208,3.203,3.2032,3.2033,3.2034,0,0,0,0,0,0,0,3.1906,3.1912,3.1983,3.196,3.196,3.1953,3.1957,3.1994,3.1999,3.1972,3.197,3.1975,3.2006,3.2018,3.2022,3.2081,3.203,3.2032,3.2034,3.2036,3.2186,3.2188,0,0,0,0,0,0,3.1904,3.191,3.1982,3.1984,3.1929,3.1956,3.196,3.1979,3.1998,3.1999,3.1976,3.1973,3.2013,3.2018,3.2023,3.2091,3.2033,3.2036,3.2038,3.2184,3.2187,3.2189,0,0,0,0,0,0,3.1902,3.191,3.198,3.1947,3.1955,3.196,3.1981,3.1981,3.1993,3.2002,3.2002,3.1988,3.2012,3.2019,3.2063,3.2092,3.2038,3.2041,3.2182,3.2185,3.2188,3.2227,0,0,0,0,0,0,3.1899,3.191,3.1932,3.1947,3.1957,3.202,3.1983,3.1983,3.1999,3.1995,3.2013,3.2014,3.2011,3.2059,3.2067,3.2095,3.2043,3.2179,3.2183,3.2187,3.2224,3.2231,3.2238,0,0,0,0,0,3.1896,3.1942,3.1933,3.1942,3.1985,3.2021,3.2027,3.2022,3.2001,3.2023,3.2028,3.2013,3.2088,3.2063,3.2072,3.2103,3.2177,3.2182,3.2186,3.222,3.223,3.2238,0,0,0,0,0,0,3.193,3.1944,3.1934,3.1987,3.2003,3.2017,3.2044,3.2033,3.2056,3.2051,3.2045,3.2049,3.2096,3.2104,3.2077,3.2159,3.2129,3.2136,3.2152,3.2161,3.2168,3.2165,3.2046,0,0,0,0,0,3.1944,3.1973,3.1983,3.2029,3.2037,3.204,3.2055,3.205,3.2067,3.2074,3.2083,3.2099,3.2126,3.2144,3.2169,3.2225,3.2228,3.225,3.2257,3.2263,3.2269,3.2297,3.2307,3.2204,3.2204,3.2204,0,0,3.1973,3.1984,3.2002,3.2036,3.2048,3.2077,3.2046,3.2079,3.21,3.2079,3.2121,3.2128,3.2147,3.2196,3.2219,3.2204,3.2298,3.2269,3.2273,3.2276,3.2303,3.2312,3.2321,3.2207,3.2206,3.2206,0,0,3.204,3.2052,3.209,3.2103,3.2121,3.2122,3.2131,3.2146,3.215,3.2192,3.2176,3.2202,3.2249,3.2262,3.2275,3.2346,3.2333,3.2355,3.2393,3.2421,3.2429,3.2436,3.246,3.2469,3.236,3.2361,3.2361,0,3.2073,3.2117,3.2111,3.2145,3.216,3.2142,3.218,3.2193,3.2219,3.2229,3.2212,3.227,3.2281,3.2333,3.235,3.2362,3.2371,3.2353,3.2428,3.2435,3.2442,3.2465,3.2474,3.2363,3.2363,3.2362,3.2362,0,3.2157,3.2188,3.2217,3.2241,3.226,3.2296,3.2295,3.2314,3.2307,3.231,3.2353,3.2365,3.2392,3.2404,3.2399,3.2455,3.2446,3.2429,3.2399,3.2454,3.2476,3.2485,3.2367,3.2366,3.2365,3.2364,0,0,3.2247,3.2268,3.2278,3.2289,3.2307,3.2331,3.2366,3.2392,3.2408,3.2426,3.2455,3.2494,3.2478,3.2493,3.2488,3.2513,3.2567,3.2492,3.2493,3.2505,3.2629,3.2641,3.2651,3.2558,3.256,3.2561,3.2627,0,3.2314,3.2375,3.2371,3.2428,3.2456,3.2438,3.2468,3.2483,3.2486,3.251,3.2514,3.2541,3.2518,3.2527,3.2551,3.2555,3.2591,3.255,3.2584,3.2585,3.2579,3.2663,3.2676,3.2738,3.2636,3.2637,3.2638,0,3.2401,3.2422,3.2482,3.2495,3.2507,3.2534,3.2557,3.258,3.2596,3.2596,3.2612,3.2603,3.2637,3.2607,3.2654,3.2626,3.264,3.2644,3.2646,3.2649,3.2615,3.2667,3.2757,3.2766,3.2651,3.265,3.2649,0,3.246,3.2503,3.2544,3.2554,3.257,3.259,3.2598,3.2611,3.2627,3.2647,3.2657,3.2681,3.2694,3.2712,3.2709,3.2688,3.2757,3.2727,3.2758,3.2758,3.2773,3.2772,3.2866,3.2783,3.2783,3.2783,3.2782,0,3.2535,3.2572,3.257,3.2595,3.2636,3.263,3.2671,3.2676,3.2689,3.2714,3.2701,3.2725,3.272,3.2744,3.2742,3.2781,3.2787,3.2788,3.2787,3.2789,3.2789,3.2797,3.2793,3.2785,3.2785,3.2784,3.2784,0,3.2607,3.2608,3.2651,3.2663,3.2667,3.2696,3.2706,3.273,3.2732,3.2764,3.2771,3.2774,3.2802,3.2801,3.2833,3.2831,3.2878,3.2873,3.2873,3.2871,3.2902,3.2899,3.3005,3.3018,3.2927,3.2928,3.2929,0,3.2655,3.2683,3.2698,3.2714,3.2723,3.2749,3.2765,3.276,3.2776,3.2796,3.2817,3.2843,3.2863,3.2908,3.2913,3.2936,3.2931,3.2966,3.2934,3.2935,3.293,3.2928,3.293,3.2972,3.2973,3.2974,3.2975,0,3.2739,3.2738,3.2761,3.2784,3.2802,3.282,3.2836,3.285,3.2847,3.2866,3.2894,3.291,3.2941,3.2967,3.299,3.2997,3.2985,3.2985,3.2993,3.2995,3.2993,3.2993,3.2889,3.2982,3.2982,3.2981,3.2981,3.298,3.28,3.2824,3.2837,3.2863,3.2875,3.289,3.2912,3.2917,3.294,3.2965,3.296,3.2991,3.3005,3.3034,3.3044,3.3067,3.3055,3.3067,3.307,3.3073,3.3076,3.299,3.3071,3.3071,3.3071,3.3071,3.3071,0,3.2883,3.289,3.2914,3.2937,3.2957,3.2944,3.2961,3.2978,3.3006,3.302,3.304,3.3071,3.3096,3.3102,3.3126,3.3143,3.3138,3.315,3.3148,3.315,3.3086,3.3076,3.3153,3.3153,3.3153,3.3153,3.3153,3.3153,3.2928,3.2967,3.2967,3.3011,3.3018,3.3048,3.3059,3.3073,3.3084,3.3119,3.3139,3.3143,3.3154,3.3178,3.32,3.3201,3.321,3.3223,3.3222,3.3163,3.3154,3.3146,3.3137,3.3225,3.3226,3.3283,3.3284,3.3284]},{"header":{"parameterUnit":"m.s-1","parameterCategory":1,"la1":30.2991,"la2":30.254,"lo1":-89.0895,"lo2":-89.0444,"dy":0.0017,"dx":0.0017,"nx":28,"ny":28,"refTime":"2025-04-14T03:00:00:Z","depth":0,"parameterNumber":3,"parameterNumberName":"V-component_of_WINDS"},"data":[0,0,0,0,0,0,0,0,0,0,0,0,0,0,0,0,0,0,0,0,0,0,0,0,0,0,0,0,0,0,0,0,0,0,0,0,0,0,0,0,0,0,0,0,0,0,0,0,0,0,0,0,0,0,0,0,0,0,5.0493,5.0494,0,5.0582,5.0583,5.0584,5.0598,5.0597,5.0596,5.0595,5.0678,5.0681,5.0684,0,0,0,0,0,0,0,0,0,0,0,0,0,5.0326,5.0329,5.0493,5.0494,5.0496,5.0582,5.0584,5.0585,5.0598,5.0597,5.0596,5.0595,5.0677,5.0681,5.0684,0,0,0,0,0,0,0,0,0,0,0,0,0,5.0405,5.033,5.0493,5.0513,5.0515,5.0582,5.0584,5.0585,5.0598,5.0597,5.0596,5.0595,5.0676,5.068,5.0685,5.0735,0,0,5.0698,5.07,0,0,0,0,0,0,0,0,5.0401,5.0411,5.0509,5.0512,5.0515,5.0578,5.0555,5.0635,5.0598,5.0566,5.0595,5.0594,5.0645,5.0652,5.0671,5.0739,5.0743,5.0698,5.0701,5.0703,5.0704,0,0,0,0,0,0,0,5.0395,5.0408,5.0528,5.051,5.0514,5.0514,5.0524,5.057,5.0611,5.0569,5.057,5.0581,5.0646,5.0667,5.0673,5.0744,5.0698,5.0702,5.0705,5.0707,5.0858,5.0859,0,0,0,0,0,0,5.0388,5.0403,5.0525,5.0531,5.0454,5.0518,5.053,5.0559,5.0611,5.0618,5.0582,5.0581,5.066,5.0668,5.0676,5.0739,5.0703,5.0707,5.071,5.0856,5.0858,5.086,0,0,0,0,0,0,5.0384,5.0398,5.0522,5.0468,5.0483,5.0523,5.0555,5.0561,5.0581,5.0621,5.0627,5.0596,5.0659,5.067,5.0721,5.0742,5.0709,5.0713,5.0855,5.0857,5.0859,5.0865,0,0,0,0,0,0,5.0379,5.0397,5.0418,5.0468,5.0486,5.0568,5.0557,5.0564,5.059,5.059,5.0635,5.0641,5.0659,5.0714,5.0725,5.0747,5.0716,5.0853,5.0856,5.0858,5.0863,5.0867,5.0871,0,0,0,0,0,5.0373,5.0415,5.042,5.0434,5.0514,5.0569,5.0579,5.0601,5.0592,5.0612,5.0638,5.064,5.0738,5.072,5.0732,5.0756,5.0852,5.0855,5.0858,5.0862,5.0866,5.0871,0,0,0,0,0,0,5.0363,5.0422,5.0427,5.0487,5.0524,5.0571,5.0598,5.0605,5.0643,5.0641,5.0664,5.0674,5.0724,5.0745,5.0723,5.0807,5.0794,5.0799,5.0792,5.0797,5.0801,5.0794,5.072,0,0,0,0,0,5.0369,5.0411,5.0458,5.0506,5.0525,5.0558,5.0583,5.0597,5.0634,5.0649,5.0678,5.0711,5.075,5.0775,5.0812,5.0866,5.0876,5.0889,5.0892,5.0895,5.09,5.093,5.0936,5.087,5.087,5.087,0,0,5.0379,5.0416,5.0441,5.0505,5.0535,5.0576,5.0571,5.0614,5.0644,5.0654,5.0706,5.0728,5.0767,5.082,5.0845,5.0839,5.092,5.0899,5.0901,5.0904,5.0933,5.094,5.0945,5.0872,5.0871,5.0871,0,0,5.0419,5.0452,5.0496,5.0526,5.0573,5.0595,5.0606,5.0653,5.0669,5.0722,5.073,5.0765,5.0831,5.0859,5.0881,5.0933,5.0936,5.0944,5.0963,5.0992,5.0997,5.1002,5.102,5.1026,5.0948,5.0948,5.0948,0,5.0425,5.049,5.0516,5.056,5.0588,5.0602,5.0646,5.0673,5.0728,5.0745,5.0739,5.0823,5.085,5.091,5.0923,5.0941,5.0952,5.0939,5.0995,5.1,5.1004,5.1022,5.1029,5.0949,5.0949,5.0949,5.0949,0,5.0495,5.054,5.0569,5.0626,5.0657,5.07,5.073,5.0758,5.0769,5.0791,5.0844,5.0877,5.0922,5.0937,5.0947,5.0999,5.0994,5.0991,5.0977,5.1011,5.1028,5.1035,5.095,5.095,5.095,5.0949,0,0,5.053,5.0603,5.0613,5.0639,5.0692,5.0726,5.0769,5.0816,5.0839,5.0876,5.0911,5.0968,5.0966,5.0991,5.1005,5.103,5.1069,5.1024,5.1025,5.1031,5.1127,5.1129,5.1136,5.1072,5.1073,5.1074,5.1123,0,5.0576,5.0658,5.0683,5.0749,5.0791,5.0805,5.0842,5.0877,5.09,5.0935,5.0958,5.0998,5.0993,5.1008,5.1034,5.1059,5.1088,5.1055,5.1103,5.1105,5.1093,5.1145,5.1147,5.1192,5.113,5.1131,5.1132,0,5.0641,5.0683,5.0755,5.0804,5.0822,5.0856,5.0901,5.0936,5.0975,5.0989,5.1019,5.1031,5.1074,5.1059,5.1118,5.1095,5.1116,5.1131,5.1133,5.1138,5.112,5.1151,5.1207,5.1213,5.1143,5.1142,5.1141,0,5.066,5.0734,5.0787,5.0809,5.0867,5.089,5.0914,5.0953,5.098,5.1018,5.1036,5.1077,5.11,5.1131,5.1153,5.114,5.121,5.1197,5.1221,5.1221,5.1235,5.1234,5.1295,5.1249,5.1249,5.1249,5.1248,0,5.0708,5.0751,5.0796,5.0829,5.0877,5.0904,5.095,5.0975,5.101,5.1045,5.1059,5.1092,5.1119,5.1155,5.1172,5.1218,5.1227,5.1239,5.1243,5.1238,5.1236,5.1251,5.1248,5.125,5.125,5.125,5.1249,0,5.0737,5.0769,5.0828,5.0879,5.0893,5.0926,5.0968,5.0999,5.1022,5.1067,5.1079,5.1114,5.1157,5.1182,5.1235,5.1246,5.1297,5.13,5.1285,5.1287,5.131,5.1308,5.1383,5.1394,5.1341,5.1341,5.1341,0,5.0766,5.08,5.0856,5.0882,5.0908,5.095,5.0979,5.1007,5.1035,5.1083,5.1108,5.1152,5.1189,5.1256,5.1285,5.1325,5.1328,5.1352,5.1334,5.1328,5.1329,5.1326,5.133,5.1355,5.1355,5.1356,5.1356,0,5.0813,5.0828,5.087,5.0918,5.0953,5.0991,5.1028,5.1049,5.1082,5.1113,5.1159,5.1188,5.1244,5.1287,5.133,5.1352,5.1359,5.1362,5.1369,5.1364,5.1354,5.136,5.1293,5.1359,5.1359,5.1359,5.1359,5.1358,5.0843,5.0874,5.0919,5.0966,5.0998,5.1033,5.1065,5.1093,5.1133,5.1183,5.1196,5.1244,5.1281,5.1341,5.1365,5.14,5.1396,5.1408,5.141,5.1413,5.1414,5.1349,5.1408,5.1408,5.1408,5.1408,5.1408,0,5.0891,5.0921,5.0964,5.1018,5.1055,5.1062,5.1104,5.1133,5.1176,5.1212,5.1249,5.1301,5.1344,5.1376,5.1419,5.1442,5.1446,5.1452,5.145,5.1455,5.1415,5.1404,5.1448,5.1448,5.1448,5.1448,5.1448,5.1448,5.0921,5.0974,5.0994,5.1063,5.1092,5.1142,5.1166,5.1198,5.1227,5.1286,5.1323,5.1345,5.1379,5.1425,5.1464,5.1472,5.1487,5.1492,5.1501,5.1462,5.1458,5.1454,5.1444,5.1495,5.1495,5.1538,5.1539,5.1539]}]]